| time (UTC) | temp C | wind direction | speed KPH | gust KPH | rain 1hr cm | rain 24hr cm | rain mn cm | humidity % | barometer mb |
| 20260505211501 | -17 | 1.6 | 1.6 | 0.00 | 0.00 | 0.00 | 1004.5 | ||
| 20260505210001 | -17 | 0.0 | 0.0 | 0.00 | 0.00 | 0.00 | 1004.6 | ||
| 20260505204501 | -17 | 0.0 | 0.0 | 0.00 | 0.00 | 0.00 | 1004.6 | ||
| 20260505203002 | -17 | 0.0 | 1.6 | 0.00 | 0.00 | 0.00 | 1004.6 | ||
| 20260505201502 | -17 | 0.0 | 0.0 | 0.00 | 0.00 | 0.00 | 1004.6 | ||
| 20260505200002 | -17 | 0.0 | 1.6 | 0.00 | 0.00 | 0.00 | 1004.5 | ||
| 20260505194501 | -17 | 0.0 | 1.6 | 0.00 | 0.00 | 0.00 | 1004.5 | ||
| 20260505193001 | -17 | 0.0 | 0.0 | 0.00 | 0.00 | 0.00 | 1004.3 | ||
| 20260505191501 | -17 | 0.0 | 0.0 | 0.00 | 0.00 | 0.00 | 1004.0 | ||
| 20260505190003 | -17 | 0.0 | 0.0 | 0.00 | 0.00 | 0.00 | 1004.0 | ||
| 20260505184502 | -17 | 0.0 | 0.0 | 0.00 | 0.00 | 0.00 | 1004.0 | ||
| 20260505183002 | -17 | 0.0 | 1.6 | 0.00 | 0.00 | 0.00 | 1003.9 | ||
| 20260505181502 | -17 | 0.0 | 0.0 | 0.00 | 0.00 | 0.00 | 1004.0 | ||
| 20260505180002 | -17 | 3.2 | 4.8 | 0.00 | 0.00 | 0.00 | 1003.8 | ||
| 20260505174502 | -17 | 1.6 | 4.8 | 0.00 | 0.00 | 0.00 | 1004.2 | ||
| 20260505173001 | -17 | 0.0 | 3.2 | 0.00 | 0.00 | 0.00 | 1004.3 | ||
| 20260505171501 | -17 | 0.0 | 6.4 | 0.00 | 0.00 | 0.00 | 1004.4 | ||
| 20260505170001 | -17 | 3.2 | 6.4 | 0.00 | 0.00 | 0.00 | 1004.4 | ||
| 20260505164502 | -17 | 1.6 | 6.4 | 0.00 | 0.00 | 0.00 | 1004.4 | ||
| 20260505163002 | -17 | 1.6 | 4.8 | 0.00 | 0.00 | 0.00 | 1004.4 | ||
| 20260505161501 | -17 | 0.0 | 1.6 | 0.00 | 0.00 | 0.00 | 1004.2 | ||
| 20260505153002 | -17 | 1.6 | 1.6 | 0.00 | 0.00 | 0.00 | 1004.5 | ||
| 20260505151502 | -17 | 0.0 | 4.8 | 0.00 | 0.00 | 0.00 | 1004.4 | ||
| 20260505124501 | -17 | 0.0 | 1.6 | 0.00 | 0.00 | 0.00 | 1005.0 | ||
| 20260505123002 | -17 | 0.0 | 4.8 | 0.00 | 0.00 | 0.00 | 1005.0 | ||
| 20260505121502 | -17 | 1.6 | 4.8 | 0.00 | 0.00 | 0.00 | 1004.8 | ||
| 20260505120001 | -17 | 0.0 | 3.2 | 0.00 | 0.00 | 0.00 | 1005.0 | ||
| 20260505114501 | -17 | 3.2 | 3.2 | 0.00 | 0.00 | 0.00 | 1004.9 | ||
| 20260505113001 | -17 | 0.0 | 1.6 | 0.00 | 0.00 | 0.00 | 1004.9 | ||
| 20260505111502 | -17 | 1.6 | 3.2 | 0.00 | 0.00 | 0.00 | 1005.0 | ||
| 20260505101501 | -17 | 0.0 | 0.0 | 0.00 | 0.00 | 0.00 | 1005.0 | ||
| 20260505100001 | -17 | 0.0 | 1.6 | 0.00 | 0.00 | 0.00 | 1005.0 | ||
| 20260505094502 | -17 | 1.6 | 3.2 | 0.00 | 0.00 | 0.00 | 1004.9 | ||
| 20260505093002 | -17 | 0.0 | 0.0 | 0.00 | 0.00 | 0.00 | 1004.8 | ||
| 20260505091501 | -17 | 0.0 | 0.0 | 0.00 | 0.00 | 0.00 | 1004.8 | ||
| 20260505090001 | -17 | 0.0 | 0.0 | 0.00 | 0.00 | 0.00 | 1004.7 | ||
| 20260505084501 | -17 | 0.0 | 1.6 | 0.00 | 0.00 | 0.00 | 1004.6 | ||
| 20260505083001 | -17 | 1.6 | 1.6 | 0.00 | 0.00 | 0.00 | 1004.4 | ||
| 20260505081502 | -17 | 0.0 | 0.0 | 0.00 | 0.00 | 0.00 | 1004.4 | ||
| 20260505080002 | -17 | 0.0 | 0.0 | 0.00 | 0.00 | 0.00 | 1004.5 | ||
| 20260505074501 | -17 | 3.2 | 4.8 | 0.00 | 0.00 | 0.00 | 1004.3 | ||
| 20260505073001 | -17 | 3.2 | 6.4 | 0.00 | 0.00 | 0.00 | 1004.5 | ||
| 20260505071501 | -17 | 0.0 | 1.6 | 0.00 | 0.00 | 0.00 | 1004.0 | ||
| 20260505070001 | -17 | 0.0 | 1.6 | 0.00 | 0.00 | 0.00 | 1003.7 | ||
| 20260505064502 | -17 | 0.0 | 0.0 | 0.00 | 0.00 | 0.00 | 1003.6 | ||
| 20260505063002 | -17 | 0.0 | 0.0 | 0.00 | 0.00 | 0.00 | 1003.5 | ||
| 20260505061501 | -17 | 0.0 | 0.0 | 0.00 | 0.00 | 0.00 | 1003.5 | ||
| 20260505060001 | -17 | 0.0 | 1.6 | 0.00 | 0.00 | 0.00 | 1003.4 | ||
| 20260505054501 | -17 | 0.0 | 0.0 | 0.00 | 0.00 | 0.00 | 1003.1 | ||
| 20260505053001 | -17 | 0.0 | 1.6 | 0.00 | 0.00 | 0.00 | 1003.0 | ||
| 20260505051502 | -17 | 0.0 | 1.6 | 0.00 | 0.00 | 0.00 | 1003.0 | ||
| 20260505041501 | -17 | 0.0 | 1.6 | 0.00 | 0.00 | 0.00 | 1003.0 | ||
| 20260505040001 | -17 | 0.0 | 4.8 | 0.00 | 0.00 | 0.00 | 1003.0 | ||
| 20260505034502 | -17 | 0.0 | 1.6 | 0.00 | 0.00 | 0.00 | 1003.1 | ||
| 20260505033002 | -17 | 3.2 | 8.0 | 0.00 | 0.00 | 0.00 | 1003.0 | ||
| 20260505031501 | -17 | 1.6 | 4.8 | 0.00 | 0.00 | 0.00 | 1003.9 | ||
| 20260505030001 | -17 | 1.6 | 1.6 | 0.00 | 0.00 | 0.00 | 1003.8 | ||
| 20260505024501 | -17 | 0.0 | 1.6 | 0.00 | 0.00 | 0.00 | 1004.1 | ||
| 20260505023002 | -17 | 0.0 | 0.0 | 0.00 | 0.00 | 0.00 | 1004.4 | ||
| 20260505021502 | -17 | 3.2 | 4.8 | 0.00 | 0.00 | 0.00 | 1004.2 | ||
| 20260505020001 | -17 | 0.0 | 6.4 | 0.00 | 0.00 | 0.00 | 1004.3 | ||
| 20260505014501 | -17 | 3.2 | 4.8 | 0.00 | 0.00 | 0.00 | 1004.1 | ||
| 20260505013001 | -17 | 0.0 | 4.8 | 0.00 | 0.00 | 0.00 | 1004.5 | ||
| 20260505011501 | -17 | 1.6 | 4.8 | 0.00 | 0.00 | 0.00 | 1004.9 | ||
| 20260505010002 | -17 | 1.6 | 3.2 | 0.00 | 0.00 | 0.00 | 1005.3 | ||
| 20260505004502 | -17 | 1.6 | 3.2 | 0.00 | 0.00 | 0.00 | 1005.5 | ||
| 20260505003001 | -17 | 1.6 | 3.2 | 0.00 | 0.00 | 0.00 | 1005.9 | ||
| 20260505001501 | -17 | 0.0 | 1.6 | 0.00 | 0.00 | 0.00 | 1006.1 | ||
| 20260505000001 | -17 | 0.0 | 4.8 | 0.00 | 0.00 | 0.00 | 1006.0 | ||
| 20260504234501 | -17 | 1.6 | 4.8 | 0.00 | 0.00 | 0.00 | 1006.2 | ||
| 20260504233002 | -17 | 3.2 | 4.8 | 0.00 | 0.00 | 0.00 | 1006.3 | ||
| 20260504231503 | -17 | 3.2 | 4.8 | 0.00 | 0.00 | 0.00 | 1006.8 | ||
| 20260504230001 | -17 | 3.2 | 6.4 | 0.00 | 0.00 | 0.00 | 1007.0 | ||
| 20260504224501 | -17 | 1.6 | 4.8 | 0.18 | 0.00 | 0.00 | 1007.2 | ||
| 20260504223001 | -17 | 1.6 | 1.6 | 0.18 | 0.00 | 0.00 | 1007.4 | ||
| 20260504221502 | -17 | 1.6 | 4.8 | 0.18 | 0.00 | 0.00 | 1007.2 | ||
| 20260504214709 | -17 | 1.6 | 3.2 | 0.08 | 0.00 | 0.00 | 1008.0 | ||
| 20260504213208 | -17 | 0.0 | 1.6 | 0.00 | 0.00 | 0.00 | 1007.9 |